Terminal Aerodrome Forecast
Issued by NWS

Home | Current Version | Previous Version | Text Only | Print | Product List | Glossary On
Versions: 1 2 3 4 5 6 7 8 9 10 11 12 13 14 15 16 17 18 19 20 21 22 23 24 25 26 27 28 29 30 31 32 33 34 35 36 37 38 39 40 41 42 43 44 45 46 47 48 49 50
000
FTAK31 PANC 210522
TAFASD
TAF
PASD 210522Z 2106/2206 15004KT P6SM BKN030
      TEMPO 2106/2110 SCT030
     FM211100 16010G18KT 6SM -SHSN BKN025
     FM211500 15010G18KT 3SM -RASN BKN015
     FM220300 24012KT P6SM -SHRA BKN025
      AMD LTD TO CLD VIS AND WIND=

USA.gov is the U.S. government's official web portal to all federal, state and local government web resources and services.